Location: Besigheim
(48.9980°N, 9.1427°E)
Time: 16:13:46
(UTC+00:00)

SL-24 R/B - RUBIN 2 - Pass Details

Date: 25 February 2026
Orbit: 603 x 984 km, 64.6° (Epoch: 8 March)

Event Time Altitude Azimuth Distance (km) Brightness Sun altitude
Exits shadow 04:41:31 - 329° (NNW) 2,429 6.3 -15.9°
Reaches altitude 10° 04:43:25 10° 347° (NNW) 1,967 6.0 -15.5°
Maximum altitude 04:45:34 13° 16° (NNE) 1,752 6.1 -15.2°
Drops below altitude 10° 04:47:42 10° 46° (NE) 1,957 6.8 -14.8°
Sets 04:51:07 0° 74° (ENE) 2,876 8.7 -14.3°
